| time (UTC) | temp F | wind direction | speed knots | gust knots | rain 1hr in | rain 24hr in | rain mn in | humidity % | barometer mb |
| 20260502224555 | 54 | 136 | 2.6 | 7.0 | 0.00 | 0.00 | 0.00 | 45 | 1014.3 |
| 20260502223053 | 55 | 100 | 3.5 | 7.0 | 0.00 | 0.00 | 0.00 | 46 | 1014.3 |
| 20260502221552 | 55 | 83 | 2.6 | 10.4 | 0.00 | 0.00 | 0.00 | 44 | 1014.3 |
| 20260502220100 | 56 | 53 | 6.1 | 11.3 | 0.00 | 0.00 | 0.00 | 42 | 1014.1 |
| 20260502214550 | 55 | 163 | 4.3 | 9.6 | 0.00 | 0.00 | 0.00 | 43 | 1014.1 |
| 20260502213048 | 55 | 132 | 3.5 | 11.3 | 0.00 | 0.00 | 0.00 | 44 | 1014.1 |
| 20260502211549 | 55 | 175 | 4.3 | 11.3 | 0.00 | 0.00 | 0.00 | 44 | 1014.0 |
| 20260502210057 | 54 | 116 | 3.5 | 10.4 | 0.00 | 0.00 | 0.00 | 44 | 1014.1 |
| 20260502204547 | 56 | 148 | 3.5 | 9.6 | 0.00 | 0.00 | 0.00 | 45 | 1014.0 |
| 20260502203043 | 55 | 216 | 2.6 | 8.7 | 0.00 | 0.00 | 0.00 | 47 | 1014.2 |
| 20260502201541 | 55 | 104 | 5.2 | 8.7 | 0.00 | 0.00 | 0.00 | 46 | 1014.3 |
| 20260502200042 | 55 | 169 | 0.9 | 7.0 | 0.00 | 0.00 | 0.00 | 47 | 1014.4 |
| 20260502194539 | 55 | 106 | 1.7 | 6.1 | 0.00 | 0.00 | 0.00 | 48 | 1014.5 |
| 20260502193036 | 54 | 107 | 2.6 | 8.7 | 0.00 | 0.00 | 0.00 | 45 | 1014.7 |
| 20260502191535 | 55 | 103 | 0.9 | 7.8 | 0.00 | 0.00 | 0.00 | 43 | 1014.7 |
| 20260502190034 | 56 | 82 | 7.8 | 12.2 | 0.00 | 0.00 | 0.00 | 43 | 1014.9 |
| 20260502184543 | 55 | 86 | 0.9 | 8.7 | 0.00 | 0.00 | 0.00 | 47 | 1015.0 |
| 20260502183031 | 56 | 131 | 5.2 | 15.6 | 0.00 | 0.00 | 0.00 | 44 | 1015.1 |
| 20260502181528 | 54 | 67 | 1.7 | 7.8 | 0.00 | 0.00 | 0.00 | 44 | 1015.1 |
| 20260502163048 | 54 | 182 | 7.0 | 12.2 | 0.00 | 0.00 | 0.00 | 44 | 1015.6 |
| 20260502161544 | 53 | 211 | 2.6 | 8.7 | 0.00 | 0.00 | 0.00 | 51 | 1016.0 |
| 20260502151542 | 53 | 130 | 1.7 | 7.0 | 0.00 | 0.00 | 0.00 | 53 | 1016.2 |
| 20260502123001 | 37 | 157 | 0.0 | 4.3 | 0.00 | 0.00 | 0.00 | 96 | 1016.3 |
| 20260502121610 | 37 | 158 | 0.0 | 0.0 | 0.00 | 0.00 | 0.00 | 96 | 1016.4 |
| 20260502120104 | 36 | 159 | 0.0 | 0.9 | 0.00 | 0.00 | 0.00 | 96 | 1016.4 |
| 20260502114559 | 35 | 159 | 0.0 | 0.0 | 0.00 | 0.00 | 0.00 | 95 | 1016.3 |
| 20260502113059 | 35 | 159 | 0.0 | 0.0 | 0.00 | 0.00 | 0.00 | 95 | 1016.3 |
| 20260502113004 | 35 | 159 | 0.0 | 0.0 | 0.00 | 0.00 | 0.00 | 95 | 1016.3 |
| 20260502111600 | 35 | 159 | 0.0 | 0.9 | 0.00 | 0.00 | 0.00 | 95 | 1016.3 |
| 20260502110058 | 34 | 159 | 0.0 | 0.0 | 0.00 | 0.00 | 0.00 | 95 | 1016.1 |
| 20260502104554 | 34 | 159 | 0.0 | 0.0 | 0.00 | 0.00 | 0.00 | 95 | 1015.9 |
| 20260502103104 | 34 | 159 | 0.0 | 0.0 | 0.00 | 0.00 | 0.00 | 95 | 1015.8 |
| 20260502101611 | 34 | 159 | 0.0 | 0.0 | 0.00 | 0.00 | 0.00 | 94 | 1016.2 |
| 20260502071532 | 36 | 159 | 0.0 | 1.7 | 0.00 | 0.00 | 0.00 | 93 | 1015.8 |
| 20260502070029 | 36 | 159 | 0.0 | 0.9 | 0.00 | 0.00 | 0.00 | 93 | 1015.7 |
| 20260502064531 | 36 | 159 | 0.0 | 0.0 | 0.00 | 0.00 | 0.00 | 93 | 1015.8 |
| 20260502063025 | 37 | 159 | 0.0 | 0.0 | 0.00 | 0.00 | 0.00 | 92 | 1015.7 |
| 20260502061522 | 37 | 159 | 0.0 | 0.0 | 0.00 | 0.00 | 0.00 | 92 | 1016.0 |
| 20260502060020 | 37 | 159 | 0.0 | 0.0 | 0.00 | 0.00 | 0.00 | 92 | 1016.4 |
| 20260502054517 | 38 | 159 | 0.0 | 0.0 | 0.00 | 0.00 | 0.00 | 92 | 1016.1 |
| 20260502053013 | 38 | 159 | 0.0 | 0.9 | 0.00 | 0.00 | 0.00 | 92 | 1016.3 |
| 20260502051510 | 39 | 159 | 0.0 | 1.7 | 0.00 | 0.00 | 0.00 | 91 | 1016.4 |
| 20260502050009 | 39 | 157 | 0.0 | 0.0 | 0.00 | 0.00 | 0.00 | 90 | 1016.5 |
| 20260502044506 | 39 | 157 | 0.0 | 3.5 | 0.00 | 0.00 | 0.00 | 90 | 1016.4 |
| 20260502043002 | 41 | 157 | 0.0 | 0.0 | 0.00 | 0.00 | 0.00 | 88 | 1016.6 |
| 20260502041600 | 41 | 157 | 0.0 | 0.0 | 0.00 | 0.00 | 0.00 | 87 | 1016.6 |
| 20260502040055 | 42 | 157 | 0.0 | 0.0 | 0.00 | 0.00 | 0.00 | 86 | 1016.5 |
| 20260502034554 | 43 | 157 | 0.0 | 1.7 | 0.00 | 0.00 | 0.00 | 86 | 1016.3 |
| 20260502033056 | 43 | 157 | 1.7 | 4.3 | 0.00 | 0.00 | 0.00 | 85 | 1016.1 |
| 20260502031553 | 44 | 145 | 0.0 | 1.7 | 0.00 | 0.00 | 0.00 | 83 | 1016.1 |
| 20260502030023 | 46 | 145 | 0.0 | 1.7 | 0.00 | 0.00 | 0.00 | 81 | 1016.4 |
| 20260502024522 | 46 | 144 | 0.0 | 1.7 | 0.00 | 0.00 | 0.00 | 80 | 1016.3 |
| 20260502023019 | 47 | 144 | 0.0 | 0.9 | 0.00 | 0.00 | 0.00 | 78 | 1016.4 |
| 20260502021517 | 47 | 144 | 0.0 | 0.0 | 0.00 | 0.00 | 0.00 | 75 | 1016.1 |
| 20260502020020 | 48 | 144 | 0.0 | 4.3 | 0.00 | 0.00 | 0.00 | 73 | 1015.7 |
| 20260502014514 | 49 | 143 | 0.0 | 4.3 | 0.00 | 0.00 | 0.00 | 69 | 1015.5 |
| 20260502013012 | 50 | 143 | 2.6 | 5.2 | 0.00 | 0.00 | 0.00 | 66 | 1015.2 |
| 20260502011533 | 50 | 161 | 4.3 | 7.0 | 0.00 | 0.00 | 0.00 | 66 | 1015.0 |
| 20260502010010 | 51 | 148 | 1.7 | 10.4 | 0.00 | 0.00 | 0.00 | 66 | 1014.7 |
| 20260502004510 | 52 | 138 | 3.5 | 12.2 | 0.00 | 0.00 | 0.00 | 66 | 1014.5 |
| 20260502003007 | 53 | 136 | 5.2 | 9.6 | 0.00 | 0.00 | 0.00 | 68 | 1013.8 |
| 20260502001509 | 54 | 146 | 2.6 | 8.7 | 0.00 | 0.00 | 0.00 | 67 | 1013.7 |
| 20260502000010 | 54 | 148 | 3.5 | 9.6 | 0.00 | 0.00 | 0.00 | 66 | 1013.5 |
| 20260501234506 | 55 | 167 | 3.5 | 9.6 | 0.00 | 0.00 | 0.00 | 63 | 1013.2 |
| 20260501233005 | 56 | 132 | 0.9 | 5.2 | 0.00 | 0.00 | 0.00 | 62 | 1012.6 |
| 20260501231505 | 56 | 178 | 2.6 | 7.8 | 0.00 | 0.00 | 0.00 | 61 | 1012.4 |
| 20260501230002 | 56 | 163 | 0.9 | 7.8 | 0.00 | 0.00 | 0.00 | 62 | 1012.5 |